EXPRESS-AM3

Last updated on Nov. 18, 2019, 4:21 a.m. UTC

1 28707U 05023A   19321.58566956 -.00000315  00000-0  00000+0 0  9999
2 28707   1.3327  92.2208 0000979  93.1104 184.9065  1.00271514 52739
UTC
Height (km)
Latitude
Longitude
Inclination
Orbital Period
UTC large
Height (km)
Speed (km/s)
/
Latitude / Longitude
Inclination (degrees)
Orbital Period (minutes)
Azimuth
Elevation
Range (km)
Doppler Factor
iOS Compass Heading
iOS Angle

Next 30 passes for location: Hong Kong

Rise time Rise Azimuth (degrees) Set time Set Azimuth (degrees) Duration Max altitude (degrees)

No matching passes for this satellites